Content
SEND FEEDBACK

Daily
Averages
Monthly
Summary
United States of America

ULYSSES, NEBRASKA


Home > North America > United States > Nebraska
Elevation: 1520 feet     Latitude: 41 04N     Longitude: 097 12W

WEATHER
 
SELECT A DAY
Number of Records: 318,161;   Date Range: 1/14/02 - 10/19/14
 
SHARE

PRINT THIS DATA

[ ← Previous Day ]
WEATHER ALMANAC - FEBRUARY 13, 2013
[ Next Day → ]
[ °C ]   °F
Weather ElementAverageHighLow
Temperature36.6 °F53.6 °F (4:15 pm)26.6 °F (12:35 am)
Dewpoint26.8 °F30.2 °F (12:35 pm)23 °F (1:55 am)
Humidity70.5 %93 % (12:35 am)38 % (4:15 pm)
Barometer29.83 in29.91 in (12:35 am)29.75 in (3:35 pm)
Wind Speed7 mph17.3 mph (1:35 pm)
Wind Gust26.5 mph (3:15 pm)
Weather ElementAverage
Visibility10 mi
Wind DirectionS (183.1 °)

Weather ElementTotal
Precipitation---
Heating Degree Days24.9 (Base 65)
Averaged from 71 records on February 13, 2013
WEATHER CONDITIONS BREAKOUT
WIND DIRECTION BREAKOUT
WEATHER BY HOUR - FEBRUARY 13, 2013
[ °C ]   °F
Local TimeTemperatureDewpointHumidityBarometerVisibilityWind DirectionWind SpeedGust SpeedPrecipitationEventsConditions
12:35 AM26.6 °F24.8 °F93 %29.91 in10.0 miCalmClear
12:55 AM28.4 °F24.8 °F86 %29.91 in10.0 miCalmClear
1:15 AM26.6 °F24.8 °F93 %29.91 in10.0 miCalmClear
1:35 AM26.6 °F24.8 °F93 %29.90 in10.0 miCalmClear
1:55 AM26.6 °F23.0 °F86 %29.90 in10.0 miCalmClear
2:15 AM26.6 °F23.0 °F86 %29.90 in10.0 miCalmClear
2:35 AM26.6 °F23.0 °F86 %29.90 in10.0 miCalmClear
2:55 AM26.6 °F23.0 °F86 %29.90 in10.0 miCalmClear
3:15 AM26.6 °F23.0 °F86 %29.89 in10.0 miCalmClear
3:35 AM26.6 °F23.0 °F86 %29.89 in10.0 miCalmClear
3:55 AM26.6 °F23.0 °F86 %29.88 in10.0 miWest (260°)8.1 mphClear
4:15 AM26.6 °F23.0 °F86 %29.87 in10.0 miWest (270°)5.8 mphScattered Clouds
4:35 AM26.6 °F23.0 °F86 %29.86 in10.0 miCalmScattered Clouds
4:55 AM26.6 °F23.0 °F86 %29.86 in10.0 miCalmClear
5:15 AM26.6 °F23.0 °F86 %29.86 in10.0 miCalmMostly Cloudy
5:35 AM26.6 °F24.8 °F93 %29.86 in10.0 miCalmMostly Cloudy
5:55 AM26.6 °F24.8 °F93 %29.87 in10.0 miWest (270°)9.2 mphMostly Cloudy
6:15 AM26.6 °F23.0 °F86 %29.87 in10.0 miWest (270°)6.9 mphMostly Cloudy
6:35 AM26.6 °F23.0 °F86 %29.86 in10.0 miWest (270°)8.1 mphMostly Cloudy
6:55 AM26.6 °F24.8 °F93 %29.87 in10.0 miWest (270°)10.4 mphMostly Cloudy
7:15 AM28.4 °F24.8 °F86 %29.86 in10.0 miCalmPartly Cloudy
7:35 AM28.4 °F24.8 °F86 %29.86 in10.0 miWest (260°)8.1 mphClear
7:55 AM26.6 °F24.8 °F93 %29.86 in10.0 miWest (260°)5.8 mphClear
8:15 AM26.6 °F24.8 °F93 %29.86 in10.0 miCalmClear
8:35 AM28.4 °F24.8 °F86 %29.87 in10.0 miWest (280°)3.5 mphClear
8:55 AM32.0 °F26.6 °F80 %29.87 in10.0 miWNW (290°)9.2 mphClear
9:15 AM32.0 °F26.6 °F80 %29.87 in10.0 miWNW (290°)10.4 mphClear
9:35 AM33.8 °F26.6 °F75 %29.85 in10.0 miCalmClear
9:55 AM35.6 °F28.4 °F75 %29.85 in10.0 miCalmClear
10:15 AM37.4 °F28.4 °F70 %29.85 in10.0 miWNW (290°)10.4 mphClear
10:35 AM39.2 °F28.4 °F65 %29.85 in10.0 miWNW (290°)4.6 mphClear
10:55 AM39.2 °F28.4 °F65 %29.85 in10.0 miWest (280°)8.1 mphClear
11:15 AM41.0 °F28.4 °F61 %29.85 in10.0 miWest (280°)6.9 mphClear
11:35 AM42.8 °F28.4 °F57 %29.84 in10.0 miWest (270°)3.5 mphClear
11:55 AM44.6 °F28.4 °F53 %29.83 in10.0 miWSW (250°)9.2 mphClear
12:15 PM44.6 °F28.4 °F53 %29.82 in10.0 miWest (260°)9.2 mphClear
12:35 PM46.4 °F30.2 °F53 %29.82 in10.0 miWSW (250°)9.2 mphClear
12:55 PM48.2 °F30.2 °F50 %29.81 in10.0 miWSW (250°)10.4 mph16.1 mphClear
1:15 PM48.2 °F28.4 °F46 %29.80 in10.0 miWSW (250°)15.0 mphClear
1:35 PM48.2 °F28.4 °F46 %29.80 in10.0 miWest (260°)17.3 mphClear
1:55 PM50.0 °F26.6 °F40 %29.79 in10.0 miWest (260°)17.3 mphClear
2:15 PM50.0 °F26.6 °F40 %29.78 in10.0 miWSW (250°)15.0 mph19.6 mphClear
2:35 PM50.0 °F26.6 °F40 %29.77 in10.0 miWest (270°)16.1 mph19.6 mphClear
2:55 PM50.0 °F26.6 °F40 %29.76 in10.0 miWest (270°)12.7 mphClear
3:15 PM51.8 °F28.4 °F41 %29.76 in10.0 miWest (280°)16.1 mph26.5 mphClear
3:35 PM50.0 °F26.6 °F40 %29.75 in10.0 miWest (270°)16.1 mphClear
3:55 PM51.8 °F28.4 °F41 %29.75 in10.0 miWest (280°)13.8 mphClear
4:15 PM53.6 °F28.4 °F38 %29.75 in10.0 miWNW (290°)11.5 mphClear
4:35 PM51.8 °F28.4 °F41 %29.75 in10.0 miWest (280°)16.1 mph21.9 mphClear
4:55 PM50.0 °F28.4 °F43 %29.75 in10.0 miWNW (290°)12.7 mphScattered Clouds
5:15 PM48.2 °F30.2 °F50 %29.76 in10.0 miWNW (300°)10.4 mphOvercast
5:35 PM48.2 °F30.2 °F50 %29.76 in10.0 miNW (310°)10.4 mphOvercast
5:55 PM46.4 °F28.4 °F50 %29.77 in10.0 miNW (310°)11.5 mphOvercast
6:15 PM42.8 °F30.2 °F61 %29.77 in10.0 miWNW (290°)9.2 mphScattered Clouds
6:35 PM41.0 °F28.4 °F61 %29.78 in10.0 miCalmClear
6:55 PM37.4 °F28.4 °F70 %29.78 in10.0 miCalmClear
7:15 PM35.6 °F28.4 °F75 %29.78 in10.0 miCalmClear
7:35 PM37.4 °F28.4 °F70 %29.79 in10.0 miWest (280°)10.4 mphClear
7:55 PM35.6 °F28.4 °F75 %29.79 in10.0 miCalmClear
8:15 PM35.6 °F28.4 °F75 %29.79 in10.0 miWest (280°)9.2 mphClear
8:35 PM35.6 °F28.4 °F75 %29.79 in10.0 miWest (270°)3.5 mphClear
8:55 PM33.8 °F28.4 °F81 %29.79 in10.0 miCalmClear
9:15 PM35.6 °F28.4 °F75 %29.79 in10.0 miCalmClear
9:35 PM35.6 °F28.4 °F75 %29.79 in10.0 miWest (260°)10.4 mphClear
9:55 PM35.6 °F28.4 °F75 %29.79 in10.0 miWest (260°)10.4 mphClear
10:15 PM35.6 °F28.4 °F75 %29.80 in10.0 miWest (280°)13.8 mphClear
10:35 PM35.6 °F28.4 °F75 %29.81 in10.0 miWNW (290°)12.7 mphScattered Clouds
10:55 PM37.4 °F28.4 °F70 %29.82 in10.0 miWNW (300°)11.5 mphOvercast
11:15 PM35.6 °F28.4 °F75 %29.83 in10.0 miWNW (300°)11.5 mphMostly Cloudy
11:35 PM37.4 °F30.2 °F75 %29.83 in10.0 miNW (310°)13.8 mphOvercast
11:55 PM37.4 °F30.2 °F75 %29.84 in10.0 miWNW (300°)12.7 mphOvercast
Hourly data recorded from KJYR, located miles away from Ulysses, Nebraska







STORIES FROM OUR PARTNERS